CZ-4C DEB

Satellite information

Favourite Embed

Satellite Type and Status

DEBRISIN ORBIT

Key statistics

Satellite CZ-4C DEB at a glance.

Uptime

1785

Days in orbit

Revolutions

≈ 13.4

Per day

Orbit

LEO

Low Earth Orbit

Inclination

63.4

Latest

Satellite identification and parameters

Extended collection of information and parameters for CZ-4C DEB.

Object identification

Identified? True

Debris? True

Object name: CZ-4C DEB

International designator: 2021-007D

Object number (NORAD): 47535

Object ID (CCSDS): 47535

Country: PEOPLES REPUBLIC OF CHINA (PRC)

Current information (Y/N): Y

RCS size: LARGE

Orbital parameters

Period: 107.125 minutes

Inclination: 63.4058 deg

SMA: 7471.741 km

Apoapsis: 1211.785 km

Periapsis: 975.427 km

RAAN: 256.6512 deg

Eccentricy: 0.01581679

Argument of periapsis: 0.8893 deg

Mean anomaly: 359.2385 deg

Mean motion: 13.44219022 rev/day

Mean motion (dot): 0.00000033 rev/day2

B* drag term: 0.00019629187 1/REarth

Two-line elements (TLE)

Creation date: Dec. 19, 2025, 2:08 a.m.

Reference frame: TEME

Reference center: EARTH

Epoch: Dec. 18, 2025, 9:31 p.m. UTC

TLE line 0: 0 CZ-4C DEB

TLE line 1: 1 47535U 21007D 25352.89663417 .00000033 00000-0 19629-3 0 9991

TLE line 2: 2 47535 63.4058 256.6512 0158168 0.8893 359.2385 13.44219022239856

Live tracking on map

Real-time ground track for satellite CZ-4C DEB.

In-orbit conjunctions

A list of the most updated potential collisions computed for object CZ-4C DEB.

Target Orbit TCA Probability of collision Miss distance Type
DELTA 1 DEB SSO 2024-10-21 10:54:09 0.0001015045 195.0 (m) DEBRIS
FENGYUN 1C DEB SSO 2024-09-27 22:08:28 0.0006418364 306.0 (m) DEBRIS

Associated space launch

CZ-4C DEB was lifted into orbit during the mission ‘Long March 4C | Yaogan-31-02’, on board a Long March 4C space rocket.

The launch took place on Jan. 29, 2021, 4:47 a.m. from Launch Area 94 (SLS-2 / 603).

For more information about the launch, click the button.

Launch to space Long March 4C | Yaogan-31-02
Long March 4C | Yaogan-31-02

Agency: N/A

Status: Launch Successful

Launch date: Jan. 29, 2021, 4:47 a.m. UTC

Rocket: Long March 4C

Launch pad: Launch Area 94 (SLS-2 / 603)

Location: Jiuquan Satellite Launch Center, People's Republic of China

...

Latest news about this satellite

News about space launch
Long March 4C lofts three Yaogan Weixing-31 satellites

China launched its second orbital mission in 2021, orbiting three new satellites from the Jiuquan Satellite Launch Center on Friday. The launch took place from Launch Pad 94 of the LC43 launch complex using the Long March-4C (Y31) rocket. The Yaogan Weix...

News about space launch
China launches military spy satellite trio into orbit

China launched three Yaogan military satellites Friday on a Long March 4C rocket, adding to a fleet of spacecraft independent analysts believe are designed to spy on naval forces.


Newsletter sign-up

Weekly statistics, charts and insights to help you stay on top of the space industry.